CAPE
0 0 0 0 0 0 0 0 0 0 0 0 0 192 563 670 69 207 770 1065 651 1056 1409 971 611 386 149 134 43 0 0 0 0 0 0 3 105 268 203 85 2 0 0 0 0 0 0 0 0
0 0 0 0 0 0 0 0 0 0 0 2 0 61 567 602 131 323 794 1104 470 1038 1273 1107 671 460 252 236 179 5 0 1 1 2 0 0 26 104 81 0 0 0 0 0 0 0 0 0 0
0 0 0 0 0 0 0 0 0 40 11 3 0 128 387 498 160 292 871 933 572 910 1299 1254 712 503 319 300 276 30 10 16 4 13 8 3 49 64 9 0 0 0 0 0 0 0 0 0 0
0 0 0 0 0 0 0 0 0 2 4 0 0 25 72 350 181 678 864 789 269 1073 1344 1386 841 649 578 436 370 244 68 54 30 42 88 99 109 30 0 0 0 0 0 0 0 0 0 0 0
0 0 0 0 0 0 0 0 0 0 5 1 0 67 385 345 271 679 780 600 350 1298 1124 1237 942 895 816 763 562 486 199 60 71 117 151 129 23 0 0 0 0 0 0 0 0 0 0 0 0
0 0 0 0 0 0 0 0 0 0 4 8 28 427 421 201 204 615 534 530 540 1134 969 1182 1024 1005 1035 963 808 621 490 174 123 134 138 68 16 0 0 0 0 0 0 0 0 0 0 0 0
0 0 0 0 0 0 0 0 5 0 0 0 8 441 132 38 11 293 350 362 1040 1012 595 913 1153 991 897 873 978 859 644 287 138 157 127 25 4 0 0 0 0 0 0 0 0 0 0 0 0
0 0 0 0 0 0 0 0 7 0 0 0 0 217 291 57 18 150 144 808 967 957 370 392 743 1133 1055 1082 1066 1056 802 518 316 318 298 55 0 0 0 0 0 0 0 0 0 0 0 0 0
0 0 0 0 0 0 0 2 0 0 0 0 2 548 483 258 51 63 85 706 981 1030 620 236 422 571 824 962 1302 1233 1002 750 524 469 379 93 17 0 0 0 0 0 0 0 0 0 0 0 0
0 0 0 0 0 0 0 0 0 0 0 0 0 1 220 505 493 230 62 353 1156 1179 722 45 213 433 631 935 1199 1294 1207 1029 794 618 464 84 13 0 0 0 0 0 0 0 0 0 0 0 0
0 0 0 0 0 0 0 0 0 0 0 0 0 0 5 32 294 314 210 35 705 928 713 165 122 194 329 740 664 1072 1169 959 760 587 398 87 15 13 0 0 4 8 2 0 0 0 0 0 0
0 0 0 0 0 0 0 0 0 0 0 0 0 0 0 0 0 0 0 10 233 897 672 457 292 199 60 122 387 395 735 713 604 530 368 75 2 26 10 30 12 6 5 0 0 0 0 0 1
0 0 0 0 0 0 0 0 1 0 0 0 0 0 0 0 0 0 0 0 103 379 561 483 390 295 15 99 146 132 176 321 363 294 307 136 1 4 61 81 45 66 57 30 0 2 29 168 156
0 0 0 0 0 0 0 0 0 0 0 0 0 0 0 0 0 0 0 0 24 32 50 543 288 140 13 110 128 58 63 92 188 211 254 238 21 11 155 137 146 168 218 99 31 88 112 307 353
0 0 0 0 0 0 0 0 0 0 0 0 0 0 0 0 0 0 0 0 0 373 653 832 509 365 220 225 440 55 34 118 164 199 190 263 209 9 207 307 322 303 368 215 236 281 207 123 121
0 0 0 0 0 0 0 0 0 0 0 0 0 0 0 0 0 0 0 0 0 290 691 630 101 318 633 330 568 1366 142 109 137 203 172 230 224 254 134 499 291 376 311 407 303 335 227 212 222
0 0 0 0 0 0 0 0 0 0 0 0 0 0 0 0 0 0 0 0 0 15 311 299 454 1311 1213 964 542 846 1682 671 412 350 489 500 380 555 428 404 647 375 376 331 311 231 207 185 169
0 0 0 0 0 0 0 0 0 0 0 0 0 0 0 0 0 0 0 0 0 0 0 26 1112 1981 1534 1779 1687 1279 1091 1542 2016 1374 908 1200 929 683 896 822 778 872 638 444 399 354 285 192 196
0 0 0 0 0 0 0 0 0 0 0 0 0 0 0 0 0 0 0 0 0 0 0 0 12 603 2167 2233 2421 2280 1989 1854 1516 1816 2000 1624 1716 1478 1110 1323 1114 863 1046 837 691 630 473 366 365
0 0 0 0 0 0 0 0 0 0 0 0 0 0 0 0 0 0 0 0 0 0 0 0 0 0 770 1800 2381 2592 2538 2612 2202 2144 2086 1883 2036 2093 1890 1539 1418 1622 1121 1154 1235 901 745 653 643
0 0 0 0 0 0 0 0 0 0 0 0 0 0 0 0 0 0 0 0 0 0 0 0 0 0 0 547 1228 1743 2034 2197 2228 2353 2455 2233 1888 2253 2250 2159 1795 1541 1827 1744 1367 1374 991 974 938
0 0 0 0 0 0 0 0 0 0 0 0 0 0 0 0 0 0 0 0 0 0 0 0 0 0 0 0 2 200 642 1085 1648 1647 1861 2025 2163 1933 2054 2320 2378 2173 1939 1883 1588 1530 1467 1204 1000
0 0 0 0 0 0 0 0 0 0 0 0 0 0 0 0 0 0 0 0 0 0 0 0 3 0 0 0 0 0 0 17 107 479 1235 1524 1797 2090 2034 2064 1946 2150 2248 1601 1586 1418 1432 1401 1385
0 0 0 0 0 0 0 0 0 0 0 0 0 0 0 0 0 0 0 0 0 0 0 0 0 0 0 0 0 0 0 0 0 0 69 272 548 733 1368 1917 1561 1416 1067 397 1133 602 1027 1605 1609
0 0 0 0 0 0 0 0 0 0 0 0 0 0 0 0 0 0 0 0 0 0 0 0 0 0 0 0 0 0 0 0 0 136 152 75 10 4 49 604 1246 1238 674 434 0 0 0 321 978
0 0 0 0 0 0 0 0 0 2 6 0 0 0 0 0 0 0 0 0 0 0 0 0 0 0 0 0 0 0 0 0 0 0 0 0 240 483 652 883 1103 901 594 532 207 3 0 0 380
0 0 0 0 0 0 0 0 1 0 0 0 0 0 0 0 0 0 0 0 0 0 0 0 0 0 0 0 0 0 11 7 2 43 39 24 72 261 263 337 637 666 590 176 84 33 0 135 156
1 0 0 0 0 0 0 0 0 1 0 0 0 0 0 0 0 0 0 0 0 0 0 0 0 0 0 0 0 7 9 3 0 2 0 0 0 0 0 69 352 451 257 39 0 0 0 0 0
12 2 0 0 0 0 0 0 20 1 0 0 0 0 0 0 0 0 0 0 0 0 0 0 0 0 0 0 0 0 2 39 30 9 0 0 0 0 0 0 0 68 304 140 24 0 0 0 0
0 7 53 5 0 0 0 0 0 0 0 0 0 0 0 0 0 0 0 0 0 0 0 0 0 0 0 0 0 0 0 12 8 7 0 0 0 0 0 0 0 0 0 50 48 39 0 1 4
CIN
-0 -0 -0 -0 -0 -0 -0 -0 -0 -0 -0 -0 -0 -39 -105 -83 -92 -93 -379 -324 -479 -479 -459 -468 -497 -522 -575 -562 -596 -0 -0 -0 -0 -0 -0 -396 -335 -200 -204 -268 -159 -0 -0 -0 -0 -0 -0 -0 -0
-0 -0 -0 -0 -0 -0 -0 -0 -0 -0 -0 -7 -0 -48 -82 -125 -226 -343 -360 -436 -510 -494 -470 -469 -502 -521 -553 -532 -524 -405 -35 -278 -144 -267 -0 -0 -395 -301 -293 -0 -0 -0 -0 -0 -0 -0 -0 -0 -0
-0 -0 -0 -0 -0 -0 -0 -0 -0 -15 -10 -23 -0 -62 -76 -138 -300 -367 -460 -508 -562 -506 -446 -455 -489 -514 -530 -517 -493 -470 -560 -588 -660 -595 -516 -333 -376 -339 -426 -0 -0 -0 -0 -0 -0 -0 -0 -0 -0
-0 -0 -0 -0 -0 -0 -0 -0 -0 -8 -2 -0 -0 -48 -119 -142 -240 -359 -489 -471 -568 -435 -418 -422 -474 -466 -463 -464 -471 -478 -522 -504 -521 -501 -418 -369 -332 -391 -0 -0 -0 -0 -0 -0 -0 -0 -0 -0 -0
-0 -0 -0 -0 -0 -0 -0 -0 -0 -0 -7 -0 -0 -68 -105 -151 -215 -349 -435 -426 -494 -388 -457 -431 -442 -426 -403 -384 -403 -407 -466 -503 -481 -425 -380 -357 -437 -0 -0 -0 -0 -0 -0 -0 -0 -0 -0 -0 -0
-0 -0 -0 -0 -0 -0 -0 -0 -0 -0 -2 -32 -6 -55 -111 -175 -190 -273 -359 -420 -459 -393 -450 -417 -404 -376 -357 -337 -340 -354 -373 -436 -437 -414 -408 -446 -447 -0 -0 -0 -0 -0 -0 -0 -0 -0 -0 -0 -0
-0 -0 -0 -0 -0 -0 -0 -0 -0 -0 -0 -0 -29 -34 -124 -130 -161 -216 -296 -404 -421 -389 -498 -437 -373 -375 -360 -345 -303 -310 -337 -405 -439 -403 -390 -461 -267 -0 -0 -0 -0 -0 -0 -0 -0 -0 -0 -0 -0
-0 -0 -0 -0 -0 -0 -0 -0 -2 -0 -0 -0 -1 -8 -22 -64 -139 -153 -233 -302 -371 -378 -476 -503 -428 -347 -350 -322 -295 -269 -293 -343 -381 -349 -344 -455 -14 -0 -0 -0 -0 -0 -0 -0 -0 -0 -0 -0 -0
-0 -0 -0 -0 -0 -0 -0 -0 -0 -0 -0 -0 -0 -11 -44 -75 -74 -117 -157 -182 -278 -347 -386 -524 -498 -458 -385 -342 -252 -246 -259 -290 -336 -325 -321 -423 -559 -0 -0 -0 -0 -0 -0 -0 -0 -0 -0 -0 -0
-0 -0 -0 -0 -0 -0 -0 -0 -0 -0 -0 -0 -0 -2 -40 -21 -17 -54 -113 -138 -213 -327 -373 -515 -520 -477 -413 -331 -269 -233 -222 -236 -288 -317 -338 -466 -601 -0 -0 -0 -0 -0 -0 -0 -0 -0 -0 -0 -0
-0 -0 -0 -0 -0 -0 -0 -0 -0 -0 -0 -0 -0 -0 -1 -9 -20 -33 -47 -96 -119 -224 -327 -412 -429 -412 -413 -352 -386 -274 -229 -260 -298 -327 -364 -480 -531 -473 -0 -0 -306 -580 -473 -0 -0 -0 -0 -0 -0
-0 -0 -0 -0 -0 -0 -0 -0 -0 -0 -0 -0 -0 -0 -0 -0 -0 -0 -0 -128 -70 -118 -217 -324 -348 -347 -386 -445 -389 -399 -320 -311 -328 -328 -358 -505 -354 -516 -586 -521 -529 -545 -540 -0 -0 -0 -0 -0 -32
-0 -0 -0 -0 -0 -0 -0 -0 -4 -0 -0 -0 -0 -0 -0 -0 -0 -0 -0 -0 -87 -60 -142 -252 -270 -354 -386 -433 -372 -462 -461 -420 -401 -398 -355 -410 -165 -556 -447 -454 -481 -454 -464 -500 -0 -187 -407 -334 -322
-0 -0 -0 -0 -0 -0 -0 -0 -0 -0 -0 -0 -0 -0 -0 -0 -0 -0 -0 -0 -170 -115 -155 -165 -208 -273 -322 -371 -375 -435 -504 -458 -411 -421 -441 -384 -518 -509 -377 -384 -351 -331 -312 -359 -415 -329 -311 -266 -246
-0 -0 -0 -0 -0 -0 -0 -0 -0 -0 -0 -0 -0 -0 -0 -0 -0 -0 -0 -0 -0 -125 -131 -114 -167 -193 -213 -237 -286 -396 -446 -409 -395 -415 -424 -397 -362 -496 -333 -277 -269 -297 -279 -276 -266 -249 -254 -235 -226
-0 -0 -0 -0 -0 -0 -0 -0 -0 -0 -0 -0 -0 -0 -0 -0 -0 -0 -0 -0 -0 -136 -111 -110 -114 -151 -226 -215 -206 -157 -345 -376 -382 -372 -384 -352 -328 -305 -355 -257 -265 -232 -233 -225 -243 -222 -230 -241 -238
-0 -0 -0 -0 -0 -0 -0 -0 -0 -0 -0 -0 -0 -0 -0 -0 -0 -0 -0 -0 -0 -26 -116 -152 -127 -98 -155 -153 -166 -120 -102 -219 -254 -268 -272 -304 -304 -254 -238 -243 -230 -246 -174 -166 -172 -183 -193 -205 -206
-0 -0 -0 -0 -0 -0 -0 -0 -0 -0 -0 -0 -0 -0 -0 -0 -0 -0 -0 -0 -0 -0 -0 -95 -50 -51 -71 -81 -90 -77 -62 -46 -56 -83 -126 -121 -218 -218 -167 -187 -166 -138 -153 -162 -164 -169 -183 -184 -184
-0 -0 -0 -0 -0 -0 -0 -0 -0 -0 -0 -0 -0 -0 -0 -0 -0 -0 -0 -0 -0 -0 -0 -0 -25 -67 -19 -39 -43 -47 -39 -55 -50 -34 -20 -33 -45 -87 -140 -145 -149 -127 -100 -143 -151 -143 -144 -143 -172
-0 -0 -0 -0 -0 -0 -0 -0 -0 -0 -0 -0 -0 -0 -0 -0 -0 -0 -0 -0 -0 -0 -0 -0 -0 -0 -56 -13 -11 -12 -13 -14 -20 -30 -25 -19 -37 -36 -74 -122 -136 -98 -101 -84 -86 -89 -85 -104 -138
-0 -0 -0 -0 -0 -0 -0 -0 -0 -0 -0 -0 -0 -0 -0 -0 -0 -0 -0 -0 -0 -0 -0 -0 -0 -0 -0 -61 -34 -18 -8 -5 -8 -15 -16 -32 -36 -27 -32 -58 -108 -117 -60 -38 -63 -48 -50 -41 -100
-0 -0 -0 -0 -0 -0 -0 -0 -0 -0 -0 -0 -0 -0 -0 -0 -0 -0 -0 -0 -0 -0 -0 -0 -0 -0 -0 -0 -71 -70 -50 -31 -14 -13 -9 -7 -16 -22 -24 -29 -54 -54 -53 -33 -18 -23 -21 -64 -62
-0 -0 -0 -0 -0 -0 -0 -0 -0 -0 -0 -0 -0 -0 -0 -0 -0 -0 -0 -0 -0 -0 -0 -10 -85 -0 -0 -0 -0 -0 -0 -128 -142 -94 -37 -24 -23 -13 -10 -24 -19 -20 -13 -11 -18 -32 -39 -16 -12
-0 -0 -0 -0 -0 -0 -0 -0 -0 -0 -0 -0 -0 -0 -0 -0 -0 -0 -0 -0 -0 -0 -0 -0 -0 -0 -0 -0 -0 -0 -0 -0 -0 -0 -151 -134 -125 -110 -58 -18 -7 -16 -64 -100 -38 -28 -9 -11 -8
-0 -0 -0 -0 -0 -0 -0 -0 -0 -0 -0 -0 -0 -0 -0 -0 -0 -0 -0 -0 -0 -0 -0 -0 -0 -0 -0 -0 -0 -0 -0 -0 -0 -82 -93 -133 -113 -66 -64 -99 -41 -19 -88 -106 -0 -0 -0 -47 -3
-0 -0 -0 -0 -0 -0 -0 -0 -0 -9 -36 -0 -0 -0 -0 -0 -0 -0 -0 -0 -0 -0 -0 -0 -0 -0 -0 -0 -0 -0 -0 -0 -0 -0 -0 -0 -80 -82 -90 -88 -57 -49 -43 -36 -75 -22 -0 -0 -17
-0 -0 -0 -0 -0 -0 -0 -0 -3 -0 -0 -0 -0 -0 -0 -0 -0 -0 -0 -0 -0 -0 -0 -0 -0 -0 -0 -0 -0 -0 -42 -6 -10 -35 -82 -115 -99 -47 -57 -67 -54 -61 -58 -104 -138 -163 -0 -54 -60
-9 -0 -0 -0 -0 -0 -0 -0 -0 -43 -0 -0 -0 -0 -0 -0 -0 -0 -0 -0 -0 -0 -0 -0 -0 -0 -0 -0 -0 -48 -56 -35 -0 -25 -0 -0 -0 -0 -0 -89 -58 -53 -65 -60 -0 -0 -0 -0 -0
-28 -10 -0 -0 -0 -0 -0 -0 -54 -50 -0 -0 -0 -0 -0 -0 -0 -0 -0 -0 -0 -0 -0 -0 -0 -0 -0 -0 -0 -0 -21 -52 -61 -73 -0 -0 -0 -0 -0 -0 -0 -87 -28 -44 -60 -0 -0 -0 -0
-0 -49 -15 -9 -0 -0 -0 -0 -0 -0 -0 -0 -0 -0 -0 -0 -0 -0 -0 -0 -0 -0 -0 -0 -0 -0 -0 -0 -0 -0 -0 -47 -46 -61 -0 -0 -0 -0 -0 -0 -0 -0 -5 -62 -68 -87 -0 -9 -63
Wind_Speed
31 29 28 25 24 26 37 36 35 33 32 27 12 12 11 13 10 11 4 9 15 19 22 24 24 24 24 24 24 24 24 24 23 22 21 21 20 20 20 20 20 19 19 19 20 20 21 21 21
28 28 25 22 29 36 37 37 38 33 39 21 16 11 13 12 7 7 5 10 15 17 18 20 22 21 22 22 21 21 22 23 22 22 22 21 20 20 20 19 18 18 19 19 20 21 21 21 21
26 24 23 23 31 41 34 36 29 22 23 18 18 11 16 12 5 5 11 14 12 13 14 17 20 19 20 20 20 18 19 20 20 20 20 20 19 19 18 18 19 19 19 20 20 20 20 20 21
24 23 26 33 40 36 42 38 38 30 22 20 24 16 10 2 3 4 13 11 11 11 12 15 17 17 17 18 19 18 18 18 18 17 17 16 16 16 16 17 17 18 18 18 19 19 20 20 20
26 27 34 35 39 39 40 41 38 32 28 22 21 16 12 8 5 9 9 9 11 9 10 12 14 14 15 16 16 17 17 18 18 17 16 16 16 15 16 17 17 17 17 17 17 18 18 18 19
31 28 36 40 41 41 40 39 29 27 27 25 17 10 14 2 2 6 7 7 9 6 7 8 10 11 12 13 14 15 15 15 15 15 15 14 14 14 14 14 15 15 15 15 16 16 16 16 17
38 38 40 40 41 39 40 32 21 24 29 24 19 11 6 3 1 4 5 6 7 7 7 5 6 8 9 10 11 12 14 13 13 13 13 13 12 12 12 12 13 13 13 13 13 13 13 14 14
37 36 44 44 43 43 39 36 21 26 22 13 30 19 9 3 1 4 3 6 6 5 6 6 5 5 5 7 9 10 11 11 10 11 11 11 11 11 11 10 10 10 10 10 10 10 10 11 11
34 44 50 47 44 41 29 19 22 19 21 27 16 3 2 1 6 3 5 5 4 2 2 5 5 4 4 5 6 8 10 11 10 10 10 9 8 9 8 8 8 8 8 8 7 7 7 8 8
37 46 50 42 43 45 36 25 29 25 24 19 12 13 6 1 2 2 2 5 3 4 3 4 5 5 4 4 5 6 6 6 7 7 8 8 7 6 6 5 5 5 4 4 4 4 4 5 5
41 48 40 44 46 45 41 35 31 23 30 28 19 12 11 12 10 7 7 6 6 5 3 3 3 5 5 5 6 6 5 6 6 6 7 6 4 4 3 2 1 1 1 1 1 1 2 3 5
40 41 41 41 41 45 39 33 27 26 26 21 23 15 12 13 16 14 13 12 7 6 5 4 3 4 5 8 7 8 7 7 7 7 7 7 5 5 4 3 3 3 4 4 3 3 3 3 4
39 37 39 40 42 44 39 31 25 32 24 23 25 21 21 22 22 21 20 12 7 8 10 8 8 6 5 6 10 9 10 10 10 10 9 8 8 8 7 7 7 7 7 6 7 7 8 8 8
35 35 38 36 40 41 38 32 28 31 29 29 29 25 19 21 22 24 20 20 10 10 11 11 10 6 5 6 8 12 11 13 13 13 12 12 11 11 10 10 9 10 10 10 10 10 9 10 11
38 36 35 34 35 37 32 38 38 27 31 32 30 30 24 22 21 20 26 24 15 6 8 10 9 9 10 12 9 11 13 11 13 14 15 15 15 15 16 13 14 15 16 15 13 13 14 12 13
32 33 31 26 30 38 32 43 34 31 33 35 32 33 33 28 31 27 25 22 20 11 9 11 12 12 12 13 14 12 14 14 15 14 15 15 16 16 16 17 18 20 17 17 17 17 16 17 17
27 28 30 30 31 28 27 35 33 34 32 32 29 25 24 28 29 24 23 21 16 11 10 12 16 16 15 14 14 15 15 16 17 16 16 16 17 16 17 19 19 20 21 21 21 21 20 21 20
28 22 25 28 32 31 28 30 26 27 31 33 28 23 21 23 28 26 20 17 15 15 14 16 16 15 15 17 19 19 20 21 21 21 22 22 21 21 22 23 22 22 22 22 24 24 24 24 24
35 32 29 30 33 29 31 25 22 24 26 22 16 18 21 25 27 20 22 18 13 14 16 17 18 19 18 19 21 23 24 24 26 27 27 26 22 22 23 24 25 24 25 25 26 26 25 26 25
37 36 36 34 28 25 22 24 25 26 25 21 18 19 22 19 20 17 12 9 12 13 15 19 22 23 24 20 21 22 24 25 24 26 27 28 26 24 24 26 27 29 28 30 29 29 29 28 25
36 36 31 30 31 31 28 28 23 23 24 31 27 21 19 15 17 17 14 12 12 12 13 16 19 22 23 24 25 28 28 29 29 29 29 28 28 29 28 29 30 31 32 33 33 32 30 31 30
33 29 30 32 33 36 28 37 33 29 34 32 29 22 17 13 13 15 15 15 11 11 12 15 14 15 18 23 26 27 31 34 35 35 34 33 31 31 30 31 31 33 35 36 36 34 32 31 32
32 33 31 29 33 36 40 39 33 31 33 27 20 19 16 13 12 11 10 11 9 9 10 11 12 15 18 21 25 29 33 34 35 37 38 39 38 36 35 34 33 36 37 41 37 36 35 36 37
30 28 29 33 31 37 27 33 40 39 38 38 26 17 17 14 13 8 5 6 6 8 10 12 14 16 19 22 25 29 33 36 40 42 44 44 45 42 41 41 41 41 36 46 43 44 46 38 34
27 24 32 35 36 37 32 33 29 28 29 37 42 23 14 6 3 2 2 5 9 12 13 14 17 22 23 26 28 30 31 33 36 39 41 44 46 47 45 43 44 41 38 35 39 43 54 48 34
30 24 29 38 38 39 30 32 31 28 23 18 14 3 5 3 2 3 6 9 11 12 16 19 23 26 28 31 33 32 31 32 33 35 38 41 43 44 46 47 46 43 39 37 40 42 36 35 40
28 34 29 34 34 36 34 34 24 20 22 18 8 3 1 2 5 7 10 13 16 18 18 20 24 27 29 29 30 31 30 30 32 33 35 39 42 44 48 48 49 45 43 37 36 35 32 32 31
29 29 30 31 37 44 35 36 25 21 18 15 11 10 10 9 10 12 14 17 19 22 25 24 23 24 25 27 27 29 30 30 33 36 38 40 43 43 44 45 47 45 44 43 40 35 30 32 32
29 29 28 23 24 31 31 26 15 19 19 18 14 17 14 16 17 17 19 21 22 22 24 23 25 27 28 27 28 31 33 34 34 34 35 40 41 42 43 44 45 46 46 44 40 38 35 34 36
35 36 31 36 39 34 35 38 21 20 20 23 25 25 25 26 28 25 26 24 23 25 25 27 29 31 30 30 31 32 32 32 34 36 37 39 42 41 42 41 42 44 45 44 41 40 37 35 35
Wind_Direction
273 277 281 282 270 265 241 237 241 245 253 258 306 326 330 333 307 293 52 90 98 111 112 111 110 106 107 106 103 100 98 95 93 89 86 84 82 80 78 75 71 64 59 57 57 52 50 52 51
276 279 280 277 261 249 248 234 228 252 261 288 292 314 324 322 10 65 60 96 108 113 111 111 112 108 107 105 102 101 100 99 97 95 93 90 88 85 82 76 70 65 63 61 61 59 56 52 51
275 276 275 269 260 246 252 236 250 284 300 289 280 314 307 295 36 68 94 109 108 115 114 113 114 112 109 107 105 102 101 99 98 97 95 94 92 88 83 79 78 76 73 72 68 65 62 58 61
272 270 268 260 255 254 241 245 253 287 298 290 269 289 311 56 313 69 107 109 116 118 116 116 116 115 113 111 109 107 106 102 99 97 95 92 90 86 82 79 78 76 73 72 69 69 71 69 70
263 263 257 258 257 254 248 249 256 282 279 300 280 284 286 317 88 117 124 118 132 125 122 118 119 118 118 117 114 112 112 111 107 102 99 98 95 92 91 90 87 81 77 74 73 74 75 73 72
252 254 254 251 254 252 251 247 275 275 270 285 306 289 294 326 138 138 142 136 135 139 137 124 124 122 121 121 120 119 117 114 111 107 106 103 101 98 95 92 90 88 83 81 81 80 80 79 75
246 248 250 253 253 255 247 259 278 272 253 291 301 305 294 296 222 144 150 151 139 126 137 134 131 130 128 128 127 128 126 123 120 117 114 110 108 104 100 96 93 91 89 86 84 81 80 79 79
246 250 249 249 248 251 251 262 264 263 281 293 260 301 274 308 165 128 123 142 146 133 136 156 153 145 139 136 138 138 137 131 126 124 123 120 117 114 111 106 99 93 89 83 80 73 69 71 78
247 245 244 245 246 247 260 281 270 246 272 273 286 305 109 106 89 130 119 145 152 170 150 174 178 176 170 158 155 152 150 147 141 137 135 131 125 124 120 117 113 106 97 90 84 64 53 49 55
241 242 243 247 248 246 258 275 263 253 262 257 284 280 295 92 244 128 191 168 172 156 151 165 194 200 197 201 184 188 179 171 159 155 150 147 144 142 134 131 125 111 101 91 81 64 67 58 42
244 244 248 248 249 250 259 272 266 258 250 257 264 277 269 274 274 269 264 261 210 192 191 168 203 224 222 230 214 217 202 203 196 184 175 177 181 176 168 178 189 161 135 63 64 44 14 10 4
245 248 249 249 251 252 258 271 259 264 254 265 260 292 287 284 280 283 300 305 303 240 210 188 199 158 232 266 234 233 223 226 221 215 210 206 218 228 212 223 238 259 275 269 280 285 299 309 325
242 247 249 251 252 251 259 272 266 255 268 271 264 274 271 282 280 285 290 297 284 258 259 209 191 192 239 247 258 248 239 228 235 235 238 241 232 238 244 251 253 267 277 276 271 273 287 294 301
244 248 249 251 250 250 257 267 265 260 266 269 272 274 288 281 284 284 288 291 306 292 255 236 220 192 187 199 230 252 248 251 249 249 242 238 247 250 260 254 256 263 268 277 278 279 278 285 292
241 253 253 253 253 255 264 261 260 269 272 272 276 277 284 283 287 284 277 285 300 299 187 206 214 235 203 244 234 242 252 247 250 253 251 249 253 257 268 262 264 271 274 273 275 275 280 281 284
254 257 254 261 262 257 266 258 266 270 269 268 272 273 273 279 276 279 280 278 287 276 237 225 232 238 239 245 256 257 246 261 259 258 255 249 254 258 257 270 268 276 270 272 271 273 276 282 287
257 256 258 266 262 263 261 267 269 267 267 268 269 272 270 276 278 277 277 279 275 277 270 265 263 257 246 243 253 253 266 261 263 260 263 255 255 257 261 266 269 269 273 274 278 277 278 280 284
252 262 265 266 261 264 260 266 272 270 270 275 263 262 267 278 275 277 272 281 281 277 285 289 293 271 255 262 266 266 264 266 273 273 271 271 266 260 266 273 271 272 268 265 269 269 272 278 281
246 257 261 261 260 270 267 261 265 270 273 284 270 258 269 277 283 275 278 274 276 282 282 288 292 293 280 275 271 268 266 272 267 274 279 277 272 265 262 269 268 265 270 267 269 270 268 273 282
248 256 261 271 275 285 285 258 267 274 275 280 268 265 271 275 277 284 276 266 278 282 286 286 286 290 288 284 277 275 275 276 278 276 275 272 275 267 264 262 266 269 268 271 271 267 271 272 274
254 257 270 275 274 276 283 275 275 278 281 279 278 273 269 255 270 272 272 270 279 282 286 290 291 290 290 289 288 284 283 284 284 281 278 276 275 272 265 265 267 268 270 272 270 268 266 272 276
263 275 274 273 270 266 282 274 276 282 279 278 277 271 263 248 262 271 263 271 270 282 293 296 296 296 297 294 294 292 288 287 286 285 285 284 279 274 268 267 267 271 274 274 275 270 267 267 269
269 269 276 273 271 271 267 274 279 287 284 288 270 263 261 248 245 263 256 270 284 304 307 316 319 317 311 306 302 297 294 292 292 291 290 287 286 282 276 272 273 277 278 283 280 273 268 265 269
278 275 278 273 277 268 279 280 279 281 283 284 291 257 252 243 260 263 258 279 292 311 320 327 325 323 319 315 310 303 298 295 292 289 287 287 286 288 287 285 282 279 271 284 280 288 280 262 267
285 278 272 270 268 271 281 280 282 294 297 284 276 284 257 219 207 247 295 304 303 305 309 313 312 308 311 311 310 307 304 302 298 295 293 290 288 287 289 289 290 287 286 284 285 284 310 280 284
276 288 272 264 265 268 284 280 279 295 311 342 344 64 132 129 68 340 321 318 321 317 314 311 311 309 309 309 308 306 304 303 303 300 296 293 293 293 292 291 292 291 288 285 285 285 274 279 286
287 275 285 280 280 278 277 284 304 312 293 328 336 5 360 299 302 311 319 319 318 315 316 315 313 311 310 310 308 308 307 306 304 305 302 299 298 296 293 292 292 293 293 289 284 282 278 284 288
285 292 284 281 278 272 280 277 285 305 306 317 322 301 295 303 306 309 315 316 318 315 315 316 316 317 319 320 319 315 313 312 309 307 304 301 299 298 298 298 296 295 294 291 288 286 279 279 284
295 286 289 287 280 279 283 287 293 294 302 296 315 288 305 308 313 311 307 313 316 317 320 324 321 316 316 318 316 314 312 312 310 308 308 307 305 302 299 299 299 298 294 291 287 284 283 278 280
286 284 282 278 274 278 279 274 294 306 302 297 290 297 293 294 298 305 308 306 308 309 313 316 314 316 315 314 314 314 315 314 311 308 307 307 304 305 305 303 301 300 300 294 289 285 282 278 278